Location: Ceske Budejovice
(48.9830°N, 14.4670°E)
Time: 19:55:19
(UTC+01:00)

ISS - Pass Details

Date: 24 November 2019
Orbit: 411 x 421 km, 51.6° (Epoch: 07 December)

Event Time Altitude Azimuth Distance (km) Brightness Sun altitude
Rises 16:50:02 0° 190° (S) 2,341 0.6 -6.3°
Reaches altitude 10° 16:53:19 10° 154° (SSE) 1,487 -1.0 -6.8°
Maximum altitude 16:54:27 11° 134° (SE) 1,410 -1.3 -6.9°
Drops below altitude 10° 16:55:35 10° 115° (ESE) 1,493 -1.3 -7.1°
Enters shadow 16:56:53 - 97° (E) 1,755 -1.1 -7.3°
